Location: Bussy-Saint-Georges
(48.8410°N, 2.7017°E)
Time: 21:23:07
(UTC+00:00)

Cosmos 389 Rocket - Pass Details

Date: 18 October 2021
Orbit: 438 x 468 km, 81.1° (Epoch: 07 December)

Event Time Altitude Azimuth Distance (km) Brightness Sun altitude
Rises 17:49:16 0° 188° (S) 2,413 6.3 -9.9°
Reaches altitude 10° 17:51:18 10° 187° (S) 1,550 5.3 -10.2°
Maximum altitude 17:54:41 80° 100° (E) 454 2.3 -10.8°
Drops below altitude 10° 17:58:06 10° 14° (NNE) 1,572 5.0 -11.3°
Sets 18:00:11 0° 13° (NNE) 2,452 6.0 -11.7°
